APJ224 ROAH-RJBB

Flight info

Callsign APJ224
Flight time N/A
Altitude 37000
Route YUGAF AMAMI Y53 MADOG B597 SUC Y53 NIXOV
Aircraft A320/H-SDE3FGHIRWY/LB1

Departure

Time N/A
Airport Naha International Airport (ROAH)

Arrival

Time 2026-04-30 18:32
Airport Kansai International Airport (RJBB)
Time Latitude Longitude Altitude Speed Heading
2026-04-30 17:39 29.71461 130.52486 36904 ft 536 kts 30°
2026-04-30 17:42 30.02633 130.76016 36900 ft 536 kts 30°
2026-04-30 17:43 30.18212 130.87861 36867 ft 539 kts 31°
2026-04-30 17:44 30.36977 131.02153 36882 ft 540 kts 31°
2026-04-30 17:47 30.65075 131.23753 36875 ft 539 kts 31°
2026-04-30 17:48 30.86936 131.40657 36853 ft 540 kts 31°
2026-04-30 17:50 31.11941 131.60128 36818 ft 543 kts 31°
2026-04-30 17:52 31.30761 131.74855 36802 ft 545 kts 31°
2026-04-30 17:54 31.59170 131.97192 36781 ft 549 kts 31°
2026-04-30 17:56 31.84541 132.17294 36793 ft 552 kts 32°
2026-04-30 17:58 32.03584 132.32469 36788 ft 552 kts 32°
2026-04-30 18:00 32.28128 132.54375 36780 ft 556 kts 38°
2026-04-30 18:01 32.43200 132.68678 36767 ft 556 kts 37°
2026-04-30 18:02 32.61246 132.85907 36759 ft 557 kts 37°
2026-04-30 18:04 32.78367 133.04246 35691 ft 551 kts 57°
2026-04-30 18:05 32.87065 133.18979 33466 ft 539 kts 56°
2026-04-30 18:06 32.95591 133.33323 31228 ft 526 kts 56°
2026-04-30 18:07 33.03872 133.47420 29106 ft 511 kts 57°
2026-04-30 18:08 33.09890 133.57643 27628 ft 498 kts 57°
2026-04-30 18:09 33.17693 133.70954 25590 ft 483 kts 57°
2026-04-30 18:10 33.25246 133.83896 23514 ft 469 kts 57°
2026-04-30 18:11 33.32538 133.96428 20964 ft 448 kts 57°
2026-04-30 18:11 33.37752 134.05426 18771 ft 430 kts 56°
2026-04-30 18:12 33.42701 134.13978 17354 ft 402 kts 55°
2026-04-30 18:13 33.45802 134.19336 16485 ft 379 kts 57°
2026-04-30 18:13 33.49670 134.25983 15581 ft 359 kts 56°
2026-04-30 18:14 33.53057 134.31860 14496 ft 367 kts 57°
2026-04-30 18:15 33.57301 134.39337 13532 ft 360 kts 57°
2026-04-30 18:15 33.61752 134.46627 12241 ft 363 kts 44°
2026-04-30 18:16 33.65681 134.50451 11333 ft 363 kts 38°
2026-04-30 18:16 33.69619 134.54210 10529 ft 360 kts 38°
2026-04-30 18:17 33.71545 134.56049 10257 ft 354 kts 39°
2026-04-30 18:17 33.73458 134.57832 10127 ft 342 kts 33°
2026-04-30 18:17 33.77715 134.59800 9864 ft 319 kts 13°
2026-04-30 18:18 33.79827 134.60491 9748 ft 310 kts 13°
2026-04-30 18:18 33.81884 134.61166 9503 ft 303 kts 13°
2026-04-30 18:18 33.83903 134.61827 9313 ft 299 kts 13°
2026-04-30 18:18 33.85908 134.62484 9166 ft 298 kts 13°
2026-04-30 18:19 33.87908 134.63139 9018 ft 297 kts 13°
2026-04-30 18:19 33.89877 134.63781 8870 ft 297 kts 13°
2026-04-30 18:19 33.91868 134.64432 8724 ft 296 kts 13°
2026-04-30 18:19 33.93854 134.65079 8584 ft 295 kts 13°
2026-04-30 18:20 33.95839 134.65728 8440 ft 296 kts 14°
2026-04-30 18:20 33.97817 134.66381 8293 ft 295 kts 14°
2026-04-30 18:20 33.99791 134.67032 8148 ft 293 kts 14°
2026-04-30 18:20 34.01760 134.67676 8002 ft 293 kts 14°
2026-04-30 18:21 34.03728 134.68324 7853 ft 293 kts 15°
2026-04-30 18:21 34.05661 134.68961 7715 ft 291 kts 15°
2026-04-30 18:21 34.07613 134.69603 7559 ft 289 kts 15°
2026-04-30 18:21 34.09557 134.70242 7388 ft 290 kts 15°
2026-04-30 18:22 34.11497 134.70877 7228 ft 288 kts 16°
2026-04-30 18:22 34.15068 134.72869 6935 ft 282 kts 46°
2026-04-30 18:22 34.16250 134.74702 6631 ft 273 kts 66°
2026-04-30 18:23 34.17149 134.76713 6350 ft 272 kts 66°
2026-04-30 18:23 34.18047 134.78718 6085 ft 271 kts 66°
2026-04-30 18:23 34.18927 134.80676 5817 ft 268 kts 66°
2026-04-30 18:23 34.19817 134.82652 5551 ft 267 kts 67°
2026-04-30 18:24 34.21576 134.86530 5017 ft 259 kts 66°
2026-04-30 18:24 34.22442 134.88436 4770 ft 258 kts 66°
2026-04-30 18:24 34.23298 134.90316 4512 ft 253 kts 66°
2026-04-30 18:25 34.24132 134.92168 4252 ft 248 kts 68°
2026-04-30 18:25 34.26076 134.95782 3847 ft 257 kts 56°
2026-04-30 18:25 34.27206 134.97419 3620 ft 250 kts 55°
2026-04-30 18:26 34.29429 135.00690 2911 ft 249 kts 56°
2026-04-30 18:26 34.30497 135.02269 2766 ft 236 kts 56°
2026-04-30 18:26 34.31509 135.03765 2662 ft 223 kts 56°
2026-04-30 18:27 34.33361 135.06511 2484 ft 196 kts 55°
2026-04-30 18:27 34.34181 135.07726 2281 ft 177 kts 55°
2026-04-30 18:28 34.35577 135.09796 2051 ft 142 kts 55°
2026-04-30 18:28 34.36185 135.10700 1989 ft 136 kts 54°
2026-04-30 18:28 34.37363 135.12452 1715 ft 133 kts 54°
2026-04-30 18:29 34.37943 135.13314 1550 ft 132 kts 53°
2026-04-30 18:29 34.39678 135.15893 1035 ft 132 kts 51°
2026-04-30 18:30 34.40837 135.17614 696 ft 132 kts 51°
2026-04-30 18:30 34.41997 135.19329 359 ft 132 kts 51°
2026-04-30 18:31 34.42572 135.20195 163 ft 132 kts 51°
2026-04-30 18:31 34.43612 135.21743 27 ft 82 kts 51°
2026-04-30 18:32 34.44005 135.22330 28 ft 32 kts 49°
2026-04-30 18:32 34.44093 135.22562 23 ft 32 kts 79°
2026-04-30 18:32 34.44084 135.22900 29 ft 10 kts 148°
2026-04-30 18:33 34.44034 135.22891 29 ft 7 kts 238°
2026-04-30 18:33 34.43982 135.22815 29 ft 5 kts 229°
2026-04-30 18:33 34.43961 135.22785 29 ft 4 kts 229°
2026-04-30 18:34 34.43942 135.22759 29 ft 4 kts 229°
2026-04-30 18:34 34.43884 135.22668 29 ft 18 kts 232°
2026-04-30 18:34 34.43797 135.22565 29 ft 13 kts 184°
2026-04-30 18:35 34.43755 135.22630 29 ft 11 kts 59°
2026-04-30 18:35 34.43765 135.22715 29 ft 11 kts 122°
2026-04-30 18:35 34.43706 135.22771 29 ft 10 kts 142°
2026-04-30 18:36 34.43684 135.22880 29 ft 7 kts 50°
2026-04-30 18:36 34.43702 135.22910 29 ft 3 kts 63°
2026-04-30 18:36 34.43703 135.22917 29 ft 0 kts 80°